Juliana Airport, Sint Maarten

2:40 AM AST on May 24, 2017 (GMT -0400)
Princess Juliana International

Weather History for TNCM - October, 2012

Change the Weather History Date:

Saturday, October 6, 2012

  Actual Average Record
Temperature  
Mean Temperature 83 °F -  
Max Temperature 88 °F 86 °F 91 °F (2001)
Min Temperature 78 °F 76 °F 75 °F (2010)
Cooling Degree Days 18    
Growing Degree Days 33 (Base 50)    
Moisture  
Dew Point 71 °F    
Average Humidity 67    
Maximum Humidity 78    
Minimum Humidity 53    
Precipitation  
Precipitation 0.00 in 0.15 in - ()
Sea Level Pressure  
Sea Level Pressure 29.83 in    
Wind  
Wind Speed 2 mph ()    
Max Wind Speed 5 mph    
Max Gust Speed -    
Visibility 6.2 miles    
Events      
Averages and records for this station are not official NWS values.
T = Trace of Precipitation, MM = Missing Value Source: Averaged Metar Reports

Daily Weather History Graph

Daily Weather History Graph

Search for Another Location

Airport or City:

Trip Planner

Search our weather history database for the weather conditions in past years. The results will help you decide how hot, cold, wet, or windy it might be!

Date:

Astronomy

Oct. 06, 2012 Rise Set
Actual Time 6:03 AM AST 5:56 PM AST
Civil Twilight 5:42 AM AST 6:18 PM AST
Nautical Twilight 5:16 AM AST 6:43 PM AST
Astronomical Twilight 4:51 AM AST 7:08 PM AST
Moon 10:44 PM AST (10/6) 11:17 AM AST (10/6)
Length of Visible Light 12h 36m
Length of Day
11h 52m
Waning Gibbous, 65% of the Moon is Illuminated
Oct 6
Waning Gibbous
Oct 8
Last Quarter
Oct 15
New
Oct 21
First Quarter
Oct 29
Full

Hourly Weather History & Observations

Time (AST) Temp. Heat Index Dew Point Humidity Pressure Visibility Wind Dir Wind Speed Gust Speed Precip Events Conditions
12:00 AM 80.6 °F 84.6 °F 71.6 °F 74% 29.83 in 6.2 mi Variable 3.5 mph - N/A   Partly Cloudy
1:00 AM 78.8 °F - 69.8 °F 74% 29.83 in 6.2 mi Variable 2.3 mph - N/A   Partly Cloudy
2:00 AM 80 °F - 70 °F 65% 29.81 in 40 mi Calm Calm - -   Scattered Clouds
2:00 AM 80.6 °F 83.9 °F 69.8 °F 70% 29.80 in 6.2 mi Calm Calm - N/A   Partly Cloudy
3:00 AM 78.8 °F - 69.8 °F 74% 29.77 in 6.2 mi Variable 1.2 mph - N/A   Partly Cloudy
5:00 AM 79 °F - 71 °F 69% 29.79 in 40 mi 2.3 mph - -   Scattered Clouds
5:00 AM 78.8 °F - 69.8 °F 74% 29.77 in 6.2 mi Variable 2.3 mph - N/A   Partly Cloudy
6:00 AM 78.8 °F - 71.6 °F 78% 29.80 in 6.2 mi Variable 1.2 mph - N/A   Partly Cloudy
7:00 AM 80.6 °F 84.6 °F 71.6 °F 74% 29.83 in 6.2 mi Variable 2.3 mph - N/A   Partly Cloudy
8:00 AM 84.2 °F 90.9 °F 73.4 °F 70% 29.83 in 6.2 mi Variable 1.2 mph - N/A   Partly Cloudy
9:00 AM 84.2 °F 89.6 °F 71.6 °F 66% 29.86 in 6.2 mi Variable 3.5 mph - N/A   Partly Cloudy
10:00 AM 84.2 °F 90.9 °F 73.4 °F 70% 29.86 in 6.2 mi SSE 4.6 mph - N/A   Partly Cloudy
11:00 AM 86 °F - 71 °F 53% 29.87 in 47 mi 3.5 mph - -   Scattered Clouds
11:00 AM 86.0 °F 91.8 °F 71.6 °F 62% 29.86 in 6.2 mi Variable 3.5 mph - N/A   Partly Cloudy
12:00 PM 86.0 °F 91.8 °F 71.6 °F 62% 29.83 in 6.2 mi Variable 2.3 mph - N/A   Partly Cloudy
1:00 PM 87.8 °F 93.8 °F 71.6 °F 58% 29.83 in 6.2 mi Variable 3.5 mph - N/A   Scattered Clouds
2:00 PM 87 °F - 72 °F 53% 29.83 in 47 mi 2.3 mph - -   Partly Cloudy
2:00 PM 87.8 °F 93.8 °F 71.6 °F 58% 29.80 in 6.2 mi Variable 2.3 mph - N/A   Scattered Clouds
3:00 PM 86.0 °F 91.8 °F 71.6 °F 62% 29.80 in 6.2 mi Variable 2.3 mph - N/A   Scattered Clouds
4:00 PM 86.0 °F 91.8 °F 71.6 °F 62% 29.80 in 6.2 mi Variable 3.5 mph - N/A   Partly Cloudy
5:00 PM 85 °F - 71 °F 55% 29.82 in 44 mi 2.3 mph - -   Scattered Clouds
5:00 PM 86.0 °F 91.8 °F 71.6 °F 62% 29.80 in 6.2 mi Variable 2.3 mph - N/A   Partly Cloudy
6:00 PM 82.4 °F 87.2 °F 71.6 °F 70% 29.80 in 6.2 mi Calm Calm - N/A   Partly Cloudy
7:00 PM 82.4 °F 87.2 °F 71.6 °F 70% 29.83 in 6.2 mi Calm Calm - N/A   Partly Cloudy
8:00 PM 82 °F - 71 °F 62% 29.86 in 40 mi 1.2 mph - -   Scattered Clouds
8:00 PM 82.4 °F 87.2 °F 71.6 °F 70% 29.86 in 6.2 mi Variable 1.2 mph - N/A   Partly Cloudy
9:00 PM 82.4 °F 86.3 °F 69.8 °F 66% 29.86 in 6.2 mi Variable 3.5 mph - N/A   Partly Cloudy
10:00 PM 80.6 °F 84.6 °F 71.6 °F 74% 29.86 in 6.2 mi Variable 2.3 mph - N/A   Partly Cloudy
11:00 PM 81 °F - 71 °F 64% 29.88 in 37 mi ESE 2.3 mph - -   Scattered Clouds
11:00 PM 80.6 °F 84.6 °F 71.6 °F 74% 29.86 in 6.2 mi Variable 1.2 mph - N/A   Partly Cloudy